(°C)
11°
15°
19°
(°C)
13°
17°
NNE
NNE
NNE
NE
NE
E
S
(km/h)
4-10
4-9
4-9
4-9
4-9
3-9
3-7
(mm)
0
0
0
0
0
0
0
(%)
0
0
0
0
0
0
0

Elevația soarelui

/ -34.4°
sun-icon
UV 6
07:26
19:29
Al doilea pătrar (242°)
22:23
12:39

METAR pentru Ioannina (LGIO)

Ora Condiții Temperatură/
Punctul de rouă
Vânt Vizibilitate Vremea Nori Presiune Schimbă Brut
9°C / 7°C variable 1kt - 1023 - LGIO 260050Z AUTO VRB01KT //// // ////// 09/07 Q1023 RE//
9°C / 7°C variable 2kt - 1023 - LGIO 260020Z AUTO VRB02KT //// // ////// 09/07 Q1023 RE//
9°C / 7°C variable 0kt - 1023 - LGIO 252350Z AUTO 00000KT //// // ////// 09/07 Q1023 RE//
10°C / 8°C variable 2kt - 1023 - LGIO 252320Z AUTO VRB02KT //// // ////// 10/08 Q1023 RE//
11°C / 8°C variable 0kt - 1023 - LGIO 252250Z AUTO 00000KT //// // ////// 11/08 Q1023 RE//
10°C / 8°C variable 1kt - 1023 - LGIO 252220Z AUTO VRB01KT //// // ////// 10/08 Q1023 RE//
11°C / 8°C variable 0kt - 1023 - LGIO 252150Z AUTO 00000KT //// // ////// 11/08 Q1023 RE//
11°C / 8°C variable 1kt - 1023 - LGIO 252120Z AUTO VRB01KT //// // ////// 11/08 Q1023 RE//
13°C / 9°C variable 3kt - 1023 - LGIO 252050Z AUTO VRB03KT //// // ////// 13/09 Q1023 RE//
14°C / 9°C variable 1kt - 1023 - LGIO 252020Z AUTO VRB01KT //// // ////// 14/09 Q1023 RE//
VFR 14°C / 8°C variable 0kt >10km - Clouds and Visibility OK 1023 - LGIO 251950Z 00000KT CAVOK 14/08 Q1023
VFR 15°C / 8°C variable 0kt >10km - Clouds and Visibility OK 1023 - LGIO 251920Z 00000KT CAVOK 15/08 Q1023
VFR 17°C / 8°C variable 0kt >10km - Clouds and Visibility OK 1022 - LGIO 251850Z 00000KT CAVOK 17/08 Q1022
VFR 18°C / 8°C variable 0kt >10km - Clouds and Visibility OK 1022 - LGIO 251820Z 00000KT CAVOK 18/08 Q1022
18°C / 8°C variable 1kt - 1022 - LGIO 251750Z AUTO VRB01KT //// // ////// 18/08 Q1022 RE//
19°C / 8°C variable 1kt - 1022 - LGIO 251720Z AUTO VRB01KT //// // ////// 19/08 Q1022 RE//
22°C / 7°C variable 2kt - 1021 - LGIO 251650Z AUTO VRB02KT //// // ////// 22/07 Q1021 RE//
23°C / 7°C variable 3kt - 1021 - LGIO 251620Z AUTO VRB03KT //// // ////// 23/07 Q1021 RE//
26°C / 7°C 300º variable 240º to 310º 4kt - 1021 - LGIO 251550Z AUTO 30004KT 240V310 //// // ////// 26/07 Q1021 RE//
27°C / 7°C 290º variable 250º to 310º 7kt - 1020 - LGIO 251520Z AUTO 29007KT 250V310 //// // ////// 27/07 Q1020 RE//
29°C / 3°C variable 2kt - 1020 - LGIO 251450Z AUTO VRB02KT //// // ////// 29/03 Q1020 RE//
29°C / 3°C 280º variable 250º to 310º 5kt - 1020 - LGIO 251420Z AUTO 28005KT 250V310 //// // ////// 29/03 Q1020 RE//
29°C / 4°C 20º variable 300º to 070º 4kt - 1020 - LGIO 251350Z AUTO 02004KT 300V070 //// // ////// 29/04 Q1020 RE//
29°C / 5°C variable 3kt - 1020 - LGIO 251320Z AUTO VRB03KT //// // ////// 29/05 Q1020 RE//

9°C / 7°C

[Mai mult]
Vânt variable 1kt
Vizibilitate
Vremea -
Nori
Presiune 1023
Schimbă -
Brut LGIO 260050Z AUTO VRB01KT //// // ////// 09/07 Q1023 RE//

9°C / 7°C

[Mai mult]
Vânt variable 2kt
Vizibilitate
Vremea -
Nori
Presiune 1023
Schimbă -
Brut LGIO 260020Z AUTO VRB02KT //// // ////// 09/07 Q1023 RE//

9°C / 7°C

[Mai mult]
Vânt variable 0kt
Vizibilitate
Vremea -
Nori
Presiune 1023
Schimbă -
Brut LGIO 252350Z AUTO 00000KT //// // ////// 09/07 Q1023 RE//

10°C / 8°C

[Mai mult]
Vânt variable 2kt
Vizibilitate
Vremea -
Nori
Presiune 1023
Schimbă -
Brut LGIO 252320Z AUTO VRB02KT //// // ////// 10/08 Q1023 RE//

11°C / 8°C

[Mai mult]
Vânt variable 0kt
Vizibilitate
Vremea -
Nori
Presiune 1023
Schimbă -
Brut LGIO 252250Z AUTO 00000KT //// // ////// 11/08 Q1023 RE//

10°C / 8°C

[Mai mult]
Vânt variable 1kt
Vizibilitate
Vremea -
Nori
Presiune 1023
Schimbă -
Brut LGIO 252220Z AUTO VRB01KT //// // ////// 10/08 Q1023 RE//

11°C / 8°C

[Mai mult]
Vânt variable 0kt
Vizibilitate
Vremea -
Nori
Presiune 1023
Schimbă -
Brut LGIO 252150Z AUTO 00000KT //// // ////// 11/08 Q1023 RE//

11°C / 8°C

[Mai mult]
Vânt variable 1kt
Vizibilitate
Vremea -
Nori
Presiune 1023
Schimbă -
Brut LGIO 252120Z AUTO VRB01KT //// // ////// 11/08 Q1023 RE//

13°C / 9°C

[Mai mult]
Vânt variable 3kt
Vizibilitate
Vremea -
Nori
Presiune 1023
Schimbă -
Brut LGIO 252050Z AUTO VRB03KT //// // ////// 13/09 Q1023 RE//

14°C / 9°C

[Mai mult]
Vânt variable 1kt
Vizibilitate
Vremea -
Nori
Presiune 1023
Schimbă -
Brut LGIO 252020Z AUTO VRB01KT //// // ////// 14/09 Q1023 RE//

VFR

14°C / 8°C

[Mai mult]
Vânt variable 0kt
Vizibilitate >10km
Vremea -
Nori Clouds and Visibility OK
Presiune 1023
Schimbă -
Brut LGIO 251950Z 00000KT CAVOK 14/08 Q1023

VFR

15°C / 8°C

[Mai mult]
Vânt variable 0kt
Vizibilitate >10km
Vremea -
Nori Clouds and Visibility OK
Presiune 1023
Schimbă -
Brut LGIO 251920Z 00000KT CAVOK 15/08 Q1023

VFR

17°C / 8°C

[Mai mult]
Vânt variable 0kt
Vizibilitate >10km
Vremea -
Nori Clouds and Visibility OK
Presiune 1022
Schimbă -
Brut LGIO 251850Z 00000KT CAVOK 17/08 Q1022

VFR

18°C / 8°C

[Mai mult]
Vânt variable 0kt
Vizibilitate >10km
Vremea -
Nori Clouds and Visibility OK
Presiune 1022
Schimbă -
Brut LGIO 251820Z 00000KT CAVOK 18/08 Q1022

18°C / 8°C

[Mai mult]
Vânt variable 1kt
Vizibilitate
Vremea -
Nori
Presiune 1022
Schimbă -
Brut LGIO 251750Z AUTO VRB01KT //// // ////// 18/08 Q1022 RE//

19°C / 8°C

[Mai mult]
Vânt variable 1kt
Vizibilitate
Vremea -
Nori
Presiune 1022
Schimbă -
Brut LGIO 251720Z AUTO VRB01KT //// // ////// 19/08 Q1022 RE//

22°C / 7°C

[Mai mult]
Vânt variable 2kt
Vizibilitate
Vremea -
Nori
Presiune 1021
Schimbă -
Brut LGIO 251650Z AUTO VRB02KT //// // ////// 22/07 Q1021 RE//

23°C / 7°C

[Mai mult]
Vânt variable 3kt
Vizibilitate
Vremea -
Nori
Presiune 1021
Schimbă -
Brut LGIO 251620Z AUTO VRB03KT //// // ////// 23/07 Q1021 RE//

26°C / 7°C

[Mai mult]
Vânt 300º variable 240º to 310º 4kt
Vizibilitate
Vremea -
Nori
Presiune 1021
Schimbă -
Brut LGIO 251550Z AUTO 30004KT 240V310 //// // ////// 26/07 Q1021 RE//

27°C / 7°C

[Mai mult]
Vânt 290º variable 250º to 310º 7kt
Vizibilitate
Vremea -
Nori
Presiune 1020
Schimbă -
Brut LGIO 251520Z AUTO 29007KT 250V310 //// // ////// 27/07 Q1020 RE//

29°C / 3°C

[Mai mult]
Vânt variable 2kt
Vizibilitate
Vremea -
Nori
Presiune 1020
Schimbă -
Brut LGIO 251450Z AUTO VRB02KT //// // ////// 29/03 Q1020 RE//

29°C / 3°C

[Mai mult]
Vânt 280º variable 250º to 310º 5kt
Vizibilitate
Vremea -
Nori
Presiune 1020
Schimbă -
Brut LGIO 251420Z AUTO 28005KT 250V310 //// // ////// 29/03 Q1020 RE//

29°C / 4°C

[Mai mult]
Vânt 20º variable 300º to 070º 4kt
Vizibilitate
Vremea -
Nori
Presiune 1020
Schimbă -
Brut LGIO 251350Z AUTO 02004KT 300V070 //// // ////// 29/04 Q1020 RE//

29°C / 5°C

[Mai mult]
Vânt variable 3kt
Vizibilitate
Vremea -
Nori
Presiune 1020
Schimbă -
Brut LGIO 251320Z AUTO VRB03KT //// // ////// 29/05 Q1020 RE//

TAF pentru Ioannina (LGIO)

From till


From till Wind variable 3kt. Visibility 10km or more. Nil Significant Cloud.
With 30% probability, from till Visibility 5000m. Mist . Few Clouds 600ft.

Brut: TAF LGIO 252300Z 2600/2609 VRB03KT CAVOK PROB30 2603/2606 5000 BR FEW006

Imagini satelitare și ploaie pentru Ioannina, Grecia

Markerul cu locaţia este poziţionat pe Ioannina. [Mai mult]

Imaginea satelitară în timp real combină lumina vizibilă din timpul zilei cu radiația cu infraroșu din timpul nopții. Pe timp de noapte, imaginea nu este întunecată, deoarece radiația cu infraroșu poate detecta diferențele de temperatură. Din păcate, norii joși și ceața sunt greu de recunoscut față de temperatura de la sol, din această cauză putând fi invizibili pe timp de noapte. Imaginile satelitare Meteosat pentru Europa sunt actualizate în timp real din 5 în 5 minute. Imaginile GOES-16/GOES-17 (America de Nord și de Sud) și Himawari (Asia) sunt actualizate din 10 în 10 minute.

Cantitatea de precipitaţii este estimată cu ajutorul radarelor şi a sateliţilor. Estimările satelitare privind cantitatea de precipitaţii sunt mai puţin exacte noaptea decât în timpul zilei. Crucile portocalii marchează locurile unde fulger a fost detectat (over Europa).

Toate drepturile rezervate 2021 EUMETSAT / meteoblue. Datele despre fulgere furnizate de către nowcast.

Radar și nowcast de precipitații pentru Ioannina

Burniță
Ușoară
Moderat
Greu
Foarte greu
Grindină

Markerul de locație este plasat în Ioannina. Această animație arată radarul de precipitații pentru ultima oră, precum și o 1h prognoză. Ploaia sau ninsoarea slabă ar putea fi invizibilă pentru radar. Intensitatea precipitațiilor este codificată prin culori, de la albastru deschis la portocaliu.

Situația meteo actuală și avertismente

EUMETNET – MeteoAlarm

pictomap

Sursa: HNMS

Este posibil să existe o întârziere între acest site și site-ul www.meteoalarm.eu, pentru cele mai recente informații referitoare la alertele publicate de serviciile meteorologice naționale te rugăm să consulți www.meteoalarm.eu.